Flag for Germany Weather past 2 weeks in Wismar, Mecklenburg-Western Pomerania, Germany

Now
45 °F

Fog.


Feels Like: 43 °F
Forecast: 43 / 51 °F
Wind: 5 mph from Southwest

Location: Schwerin

Current Time: Dec 18, 2014 at 9:01:54 AM

Latest Report: Dec 18, 2014 at 8:00 AM


Visibility: 3 mi

Pressure: 29.72 "Hg

Humidity: 97%

Dew point: 44 °F

Location of WismarLocation

Historic Weather in Wismar — Graph

°F

Wismar temperature yesterday

Maximum temperature yesterday: 39 °F (at 11:00 PM)
Minimum temperature yesterday: 33 °F (at 6:00 AM)
Average temperature yesterday: 36 °F

Past Weeks' High & Low Weather Summary

 TemperatureHumidityPressure
High47 °F (Dec 12, 5:00 PM)100% (Dec 6, 7:00 PM)30.32 "Hg (Dec 6, 7:00 PM)
Low25 °F (Dec 3, 8:00 AM)76% (Dec 10, 7:00 AM)29.21 "Hg (Dec 12, 3:00 PM)
Average37 °F91%29.90 "Hg
* Reported Dec 3 8:00 AM — Dec 18 8:00 AM, Wismar, Weather by CustomWeather, © 2014

Note: Actual official high and low records may vary slightly from our data, if they occured in-between our weather recording intervals... More about our weather records

Advertising

Wismar weather history for previous 24 hours

 ConditionsComfort  
Time TempWeatherWind HumidityBarometerVisibility
8:00 AM
Dec 18
45 °FFog.5 mph97%29.72 "Hg3 mi
7:00 AM44 °FFog.5 mph97%29.73 "Hg3 mi
6:00 AM45 °FFog.5 mph95%29.71 "Hg4 mi
5:00 AM45 °FFog.6 mph96%29.70 "Hg4 mi
3:00 AM44 °FLow clouds.6 mph96%29.69 "Hg8 mi
2:00 AM44 °FLow clouds.6 mph96%29.66 "Hg9 mi
1:00 AM44 °FLow clouds.6 mph97%29.65 "Hg5 mi
12:00 AM42 °FLow clouds.6 mph100%29.63 "Hg2 mi
11:00 PM
Dec 17
39 °FDrizzle. Low clouds.6 mph100%29.62 "Hg1 mi
9:00 PM37 °FDrizzle. Low clouds.5 mph98%29.58 "Hg2 mi
8:00 PM37 °FFog.3 mph97%29.57 "Hg2 mi
7:00 PM37 °FLow clouds.3 mph96%29.56 "Hg3 mi
6:00 PM37 °FLow clouds.3 mph96%29.56 "Hg3 mi
5:00 PM37 °FDrizzle. Low clouds.3 mph96%29.56 "Hg2 mi
4:00 PM36 °FDrizzle. Low clouds.3 mph96%29.56 "Hg4 mi
3:00 PM36 °FLight rain. Low clouds.5 mph95%29.57 "Hg3 mi
2:00 PM36 °FLow clouds.3 mph94%29.58 "Hg3 mi
1:00 PM37 °FLight rain. Overcast.5 mph90%29.62 "Hg4 mi
12:00 PM37 °FLight rain. Scattered clouds.5 mph89%29.66 "Hg5 mi
11:00 AM36 °FFog.3 mph93%29.69 "Hg3 mi
9:00 AM34 °FFog.6 mph96%29.72 "Hg3 mi
Weather by CustomWeather, © 2014

See weather overviewHow to use our weather pages